COSMOS 1275 DEB, 12675

Orbit data source: Space-Track

COSMOS 1275 DEB, 12675 is space debris in LEO originally from a launch on Thu, 04 Jun 1981 UTC launched from the Plesetsk Missile And Space Complex (PKMTR). Debris objects in space refer to the collection of defunct objects orbiting the Earth. Examples of debris include non-operational satellites, rocket bodies, and fragments generated from explosions, collisions, or faulty payload assembly.

Loading next visibility...
Identifier
12675, 1981-053AF
Orbit
LEO
Country
Flag of CISCIS
Related business
Manufacturer
Unknown
Mission
Spacecraft
Bus & Motor
Unknown
Mass
Unknown
Launch date (UTC)
1981-06-04 (45 years ago)
Launch vehicle
Unknown
Launch site
Plesetsk Missile And Space Complex (PKMTR)
Object type
Payload
Rocket body
Debris
Shape & HBR
Unknown shape, 0.3 m
Radar Cross Section
Medium (>0.1 m² and <1 m²)

Expand to show TLE details & history
Last TLE update: 15 hours ago

TLE from 15 hours ago
0 COSMOS 1275 DEB
1 12675U 81053AF  25340.94701598  .00001116  00000-0  10301-2 0  9991
2 12675  82.9366  46.2379 0066149 106.8739  70.0729 13.80744618222012
Epoch: 2025-12-06T22:43Z
TLE epoch observation values (Epoch: 2025-12-06T22:43:42.180Z)
Latitude
2.21913°
Longitude
169.07103°
Altitude
947.629 km
Speed
7.386 km/s
True Right ascension
15h 03m 51s
True Declination
2° 12' 22"
Sunlit
Object was in daylight at epoch
Visualization orbit readout
Latitude
Unknown
Longitude
Unknown
Altitude
Unknown
Speed
Unknown
Apparent Right ascension
Unknown
Apparent Declination
Unknown
Sunlit
N/A
Visualization observer readout
Local Sidereal Time
11:59:33
Azimuth
Unknown
Elevation
Unknown
Doppler factor
Unknown
Orbital elements
Apogee altitude
1,006.918 km
Perigee altitude
909.857 km
Semi-major axis
7,336.525 km
Eccentricity
0.00661
Inclination
82.9366°
RAAN
46.2379°
Arg. of periapsis
106.8739°
True anomaly
70.78752°
Mean anomaly
70.0729°
Eccentric anomaly
70.43001°
Mean motion
3.45388 °/min
Orbital period
104.23 mins
BSTAR
0.0010301
Loading maneuver chart data...
Computing Atmospheric mass density...

Documentation

Showing up to 5 results
|